Terminal Aerodrome Forecast
Issued by NWS Charleston, WV

Current Version | Previous Version | Graphics & Text | Print | Product List | Glossary On
Versions: 1 2 3 4 5 6 7 8 9 10 11 12 13 14 15 16 17 18 19 20 21 22 23 24 25 26
000
FTUS41 KRLX 192300
TAFBKW
TAF
KBKW 192323Z 2000/2024 14007KT P6SM SCT030 BKN045
      TEMPO 2002/2006 5SM -SHRA BKN030
     FM200600 15004KT 5SM BR OVC020
     FM201000 15004KT 3SM BR OVC007
     FM201300 15006KT 6SM BR OVC012
     FM201400 16007KT P6SM BKN020
     FM201600 17008KT P6SM BKN035=

USA.gov is the U.S. government's official web portal to all federal, state and local government web resources and services.